This demonstration page uses our WeatherBlox Daily Observations layout. Learn more.

40.92945, -100.16068

Hourly Observations for May 4, 2018

Temp ( °F °C ) Dew Point ( °F °C ) Humidity (%) Winds ( mph kmh ) Pressure ( in mb ) Visibility ( mi km ) Precip ( " mm )
12:15 am 00:15 Clear 50 9.8 46 7.6 86 86 NW 10 17 30.06 1018 10 16.0934 0 0
12:35 am 00:35 Clear 49 9.3 45 7.3 87 87 NW 12 19 30.06 1018 10 16.0934 0 0
12:55 am 00:55 Clear 48 8.7 44 6.9 89 89 WNW 9 15 30.06 1018 10 16.0934 0 0
1:15 am 01:15 Clear 47 8.2 44 6.5 89 89 NW 9 15 30.09 1019 10 16.0934 0 0
1:35 am 01:35 Clear 45 7.3 42 5.7 90 90 WNW 7 11 30.12 1020 10 16.0934 0 0
1:55 am 01:55 Clear 43 6.2 41 4.8 91 91 WNW 5 7 30.12 1020 7 11.26538 0 0
2:15 am 02:15 Mostly Cloudy 43 6.2 41 5 92 92 WNW 6 9 30.12 1020 7 11.26538 0 0
2:35 am 02:35 Partly Cloudy 42 5.6 40 4.5 93 93 WNW 5 7 30.12 1020 7 11.26538 0 0
2:55 am 02:55 Clear 42 5.5 40 4.3 92 92 W 3 6 30.12 1020 7 11.26538 0 0
3:15 am 03:15 Clear with Mist and Fog 42 5.6 40 4.6 93 93 W 3 6 30.12 1020 5 8.0467 0 0
3:35 am 03:35 Clear 42 5.4 40 4.4 93 93 W 7 11 30.12 1020 7 11.26538 0 0
3:55 am 03:55 Clear 40 4.3 38 3.3 93 93 WNW 7 11 30.12 1020 10 16.0934 0 0
4:15 am 04:15 Clear with Mist and Fog 38 3.5 37 2.5 93 93 WNW 7 11 30.15 1021 5 8.0467 0 0
4:35 am 04:35 Clear 39 3.8 37 2.9 94 94 NW 6 9 30.15 1021 7 11.26538 0 0
4:55 am 04:55 Clear with Mist and Fog 40 4.2 38 3.3 94 94 NW 8 13 30.18 1022 4 6.43736 0 0
5:15 am 05:15 Clear with Mist and Fog 40 4.3 38 3.5 95 95 WNW 9 15 30.18 1022 5 8.0467 0 0
5:35 am 05:35 Clear 41 5.1 40 4.2 94 94 NW 8 13 30.15 1021 7 11.26538 0 0
5:55 am 05:55 Clear 42 5.5 40 4.6 94 94 WNW 9 15 30.15 1021 7 11.26538 0 0
6:15 am 06:15 Clear 43 6.3 42 5.3 93 93 WNW 12 19 30.15 1021 10 16.0934 0 0
6:35 am 06:35 Sunny 43 6.3 41 5.1 92 92 WNW 12 19 30.15 1021 10 16.0934 0 0
6:55 am 06:55 Sunny 43 6.3 41 5.1 92 92 WNW 9 15 30.18 1022 10 16.0934 0 0
7:15 am 07:15 Sunny 44 6.6 42 5.5 93 93 WNW 13 20 30.18 1022 10 16.0934 0 0
7:35 am 07:35 Sunny 46 7.6 43 6.2 91 91 WNW 15 24 30.18 1022 10 16.0934 0 0
7:55 am 07:55 Sunny 47 8.5 44 6.5 87 87 WNW 14 22 30.18 1022 10 16.0934 0 0
8:15 am 08:15 Sunny 49 9.6 45 7.3 86 86 WNW 12 19 30.18 1022 10 16.0934 0 0
8:35 am 08:35 Sunny 51 10.5 46 7.6 82 82 WNW 15 24 30.18 1022 10 16.0934 0 0
8:55 am 08:55 Sunny 53 11.5 46 8 79 79 NW 13 20 30.15 1021 10 16.0934 0 0
9:15 am 09:15 Sunny 55 12.9 47 8.5 75 75 NW 9 15 30.15 1021 10 16.0934 0 0
9:35 am 09:35 Sunny 57 14 47 8.6 70 70 WNW 10 17 30.15 1021 10 16.0934 0 0
9:55 am 09:55 Sunny 60 15.6 49 9.2 66 66 WNW 10 17 30.12 1020 10 16.0934 0 0
10:15 am 10:15 Sunny 62 16.8 49 9.2 61 61 NW 9 15 30.12 1020 10 16.0934 0 0
10:35 am 10:35 Sunny 64 17.8 48 8.7 55 55 NW 7 11 30.12 1020 10 16.0934 0 0
10:55 am 10:55 Sunny 66 19.1 48 9 52 52 NW 10 17 30.09 1019 10 16.0934 0 0
11:15 am 11:15 Sunny 69 20.5 48 8.7 47 47 NNW 12 19 30.09 1019 10 16.0934 0 0
11:35 am 11:35 Sunny 70 21.3 46 7.7 42 42 WNW 12 19 30.09 1019 10 16.0934 0 0
11:55 am 11:55 Sunny 72 22 44 6.6 37 37 NW 12 19 30.06 1018 10 16.0934 0 0
12:15 pm 12:15 Sunny 73 22.7 42 5.7 33 33 NW 10 17 30.06 1018 10 16.0934 0 0
12:35 pm 12:35 Partly Cloudy 74 23.1 41 5.2 31 31 NW 9 15 30.06 1018 10 16.0934 0 0
12:55 pm 12:55 Mostly Cloudy 73 22.9 40 4.6 30 30 NW 7 11 30.06 1018 10 16.0934 0 0
1:15 pm 13:15 Partly Cloudy 74 23.4 38 3.3 27 27 NW 7 11 30.06 1018 10 16.0934 0 0
1:35 pm 13:35 Mostly Cloudy 76 24.3 39 3.9 27 27 NW 13 20 30.06 1018 10 16.0934 0 0
1:55 pm 13:55 Partly Cloudy 76 24.3 36 2.2 24 24 NNW 12 19 30.06 1018 10 16.0934 0 0
2:15 pm 14:15 Partly Cloudy 76 24.7 37 2.6 24 24 WNW 9 15 30 1016 10 16.0934 0 0
2:35 pm 14:35 Partly Cloudy 76 24.6 36 2 23 23 NNW 6 9 30 1016 10 16.0934 0 0
2:55 pm 14:55 Partly Cloudy 77 24.8 34 1 21 21 NW 5 7 30 1016 10 16.0934 0 0
3:15 pm 15:15 Partly Cloudy 77 25 37 2.8 24 24 NNW 8 13 30 1016 10 16.0934 0 0
3:35 pm 15:35 Partly Cloudy 76 24.6 36 2.3 23 23 NNW 7 11 30 1016 10 16.0934 0 0
3:55 pm 15:55 Partly Cloudy 76 24.5 36 2 23 23 Calm 30.03 1017 10 16.0934 0 0
4:15 pm 16:15 Partly Cloudy 77 25.1 38 3.3 24 24 NW 7 11 29.97 1015 10 16.0934 0 0
4:35 pm 16:35 Partly Cloudy 78 25.7 37 3 23 23 NW 8 13 29.97 1015 10 16.0934 0 0
4:55 pm 16:55 Partly Cloudy 76 24.7 36 2.4 23 23 W 3 6 29.97 1015 10 16.0934 0 0
5:15 pm 17:15 Mostly Cloudy 77 25.2 37 2.5 23 23 N 7 11 29.97 1015 10 16.0934 0 0
5:35 pm 17:35 Mostly Cloudy 76 24.5 36 2 23 23 W 3 6 29.97 1015 10 16.0934 0 0
5:55 pm 17:55 Mostly Cloudy 77 24.8 37 2.7 24 24 WNW 8 13 29.97 1015 10 16.0934 0 0
6:15 pm 18:15 Partly Cloudy 77 24.9 36 2.1 23 23 W 6 9 29.97 1015 10 16.0934 0 0
6:35 pm 18:35 Sunny 76 24.3 39 3.7 26 26 W 5 7 29.97 1015 10 16.0934 0 0
6:55 pm 18:55 Partly Cloudy 76 24.3 38 3.1 25 25 NW 7 11 29.97 1015 10 16.0934 0 0
7:15 pm 19:15 Partly Cloudy 75 23.9 38 3.2 26 26 W 9 15 30 1016 10 16.0934 0 0
7:35 pm 19:35 Sunny 74 23.6 37 2.8 26 26 W 10 17 30 1016 10 16.0934 0 0
7:55 pm 19:55 Sunny 73 22.7 38 3.2 28 28 W 7 11 30 1016 10 16.0934 0 0
8:15 pm 20:15 Sunny 70 20.9 38 3.4 32 32 W 8 13 30 1016 10 16.0934 0 0
8:35 pm 20:35 Sunny 67 19.5 37 2.9 33 33 W 8 13 30.03 1017 10 16.0934 0 0
8:55 pm 20:55 Clear 65 18.3 37 2.7 35 35 W 7 11 30.03 1017 10 16.0934 0 0
9:15 pm 21:15 Clear 62 16.6 37 2.7 40 40 WSW 5 7 30.06 1018 10 16.0934 0 0
9:35 pm 21:35 Clear 60 15.6 37 2.6 42 42 WSW 5 7 30.06 1018 10 16.0934 0 0
9:55 pm 21:55 Clear 61 15.9 36 2.2 40 40 WSW 6 9 30.06 1018 10 16.0934 0 0
10:15 pm 22:15 Clear 59 14.8 36 2.4 43 43 SW 5 7 30.06 1018 10 16.0934 0 0
10:35 pm 22:35 Clear 55 12.7 37 2.8 51 51 SW 6 9 30.12 1020 10 16.0934 0 0
10:55 pm 22:55 Clear 54 12.3 37 2.6 52 52 SW 5 7 30.12 1020 10 16.0934 0 0
11:15 pm 23:15 Clear 53 11.7 38 3.1 56 56 SW 3 6 30.12 1020 10 16.0934 0 0
11:35 pm 23:35 Clear 54 12.3 38 3.2 54 54 SW 3 6 30.09 1019 10 16.0934 0 0
11:55 pm 23:55 Clear 53 11.8 38 3.1 56 56 SW 3 6 30.09 1019 10 16.0934 0 0

Powered by AerisWeather